Regional Weather Roundup
Issued by NWS

Home | Current Version | Previous Version | Text Only | Print | Product List | Glossary Off
Versions: 1 2 3 4 5 6 7 8 9 10 11 12 13 14 15 16 17 18 19 20 21 22 23 24 25 26 27 28 29 30 31 32 33 34 35 36 37 38 39 40 41 42 43 44 45 46 47 48 49 50

000
ASUS43 KOAX 052002
RWRNE

WEATHER ROUNDUP FOR NEBRASKA
NATIONAL WEATHER SERVICE OMAHA NE
300 PM CDT THU MAY 05 2016

NOTES: SATELLITE DATA IS BEING USED TO AUGMENT CLOUD COVER ABOVE
       12000 FEET.
       "FAIR" INDICATES FEW OR NO CLOUDS BELOW 12,000 FEET WITH NO
       SIGNIFICANT WEATHER AND/OR OBSTRUCTIONS TO VISIBILITY.

  * THESE STATIONS DO NOT REPORT WEATHER SUCH AS RAIN...SNOW OR FOG.

NEZ001>004-019>022-054>056-052100-
NEBRASKA PANHANDLE

CITY           SKY/WX    TMP DP  RH WIND       PRES   REMARKS
SCOTTSBLUFF    CLOUDY    82  38  20 SW3       29.99F
ALLIANCE       SUNNY     82  39  21 S15       29.98F
CHADRON        SUNNY     84  42  22 W3        29.92F
KIMBALL        CLOUDY    79  39  23 S13G21    30.05F
SIDNEY         CLOUDY    81  41  24 SW15G23   30.04F
$$

NEZ057>060-069>072-079>082-052100-
SOUTHWEST NEBRASKA

CITY           SKY/WX    TMP DP  RH WIND       PRES   REMARKS
NORTH PLATTE   SUNNY     81  47  30 S15       30.01F
IMPERIAL       CLOUDY    81  42  25 S12       30.03F
MCCOOK         SUNNY     79  50  36 S12       30.03F
OGALLALA       CLOUDY    79  41  25 S17       30.02S
$$

NEZ005>010-023>029-035>040-094-052100-
NORTH CENTRAL NEBRASKA

CITY           SKY/WX    TMP DP  RH WIND       PRES   REMARKS
VALENTINE      SUNNY     85  41  21 S17       29.94F
AINSWORTH      SUNNY     82  42  24 S12G18    29.98F
BROKEN BOW     SUNNY     80  50  34 S14G21    30.03F
O`NEILL        SUNNY     80  42  26 S8        30.01F
ORD            SUNNY     78  48  34 S12       30.02F
$$

NEZ041-046>049-061>064-073>077-083>087-052100-
SOUTH CENTRAL NEBRASKA

CITY           SKY/WX    TMP DP  RH WIND       PRES   REMARKS
GRAND ISLAND   SUNNY     78  40  25 S9        30.05F
AURORA         SUNNY     78  35  21 S7        30.04F
HASTINGS       SUNNY     77  40  26 VRB7      30.05F
HEBRON         SUNNY     76  35  21 CALM      30.06F
HOLDREGE       SUNNY     78  44  30 S13G20    30.06S
KEARNEY *      SUNNY     79  43  27 S5G18     30.06S
YORK           SUNNY     77  34  20 CALM      30.05F
$$

NEZ011>018-030>034-042>045-052100-
NORTHEAST NEBRASKA

CITY           SKY/WX    TMP DP  RH WIND       PRES   REMARKS
NORFOLK        SUNNY     79  38  22 SE9       30.02F
ALBION         SUNNY     78  40  25 SW3       30.02F
BLAIR          SUNNY     74  37  25 E3        30.06S
COLUMBUS *     SUNNY     75  37  25 S5        30.05F
FREMONT        SUNNY     75  38  26 CALM      30.05F
TEKAMAH        SUNNY     75  39  27 SE9       30.04F
WAYNE          SUNNY     78  42  28 CALM      30.02F
$$

NEZ050>053-065>068-078-088>093-052100-
SOUTHEAST NEBRASKA

CITY           SKY/WX    TMP DP  RH WIND       PRES   REMARKS
LINCOLN        SUNNY     78  37  22 NW5       30.06F
OMAHA EPPLEY   MOSUNNY   75  40  28 SE8       30.05F
BEATRICE       SUNNY     76  39  26 CALM      30.06F
FALLS CITY     SUNNY     75  38  26 VRB5      30.06F
NEBRASKA CITY  SUNNY     73  37  26 NE5       30.06F
PLATTSMOUTH    SUNNY     75  38  25 SE5       30.06S
$$

NEZ044-045-051>053-067-052100-
OMAHA AREA

CITY           SKY/WX    TMP DP  RH WIND       PRES   REMARKS
OMAHA EPPLEY   MOSUNNY   75  40  28 SE8       30.05F
BLAIR          SUNNY     74  37  25 E3        30.06S
FREMONT        SUNNY     75  38  26 CALM      30.05F
MILLARD        SUNNY     74  37  25 CALM      30.05F
OFFUTT AFB     SUNNY     74  42  31 VRB3      30.05S
PLATTSMOUTH    SUNNY     75  38  25 SE5       30.06S
WAHOO          FAIR      77  36  22 S5        30.05F
$$



USA.gov is the U.S. government's official web portal to all federal, state and local government web resources and services.